Weather History for Quincy, IL

Change the Weather History Date:

Tuesday, July 23, 2013

  Actual Average Record
Temperature  
Mean Temperature 75 °F 76 °F  
Max Temperature 86 °F 86 °F 112 °F (1934)
Min Temperature 63 °F 66 °F 53 °F (1947)
Degree Days  
Heating Degree Days 0 0  
Month to date heating degree days 0 0  
Since 1 June heating degree days 12 16  
Since 1 July heating degree days 0 0  
Cooling Degree Days 10 11  
Month to date cooling degree days 282 253  
Year to date cooling degree days 653 566  
Since 1 June cooling degree days 541 480  
Growing Degree Days 25 (Base 50)    
Moisture  
Dew Point 63 °F    
Average Humidity 69    
Maximum Humidity 93    
Minimum Humidity 44    
Precipitation  
Precipitation T in 0.13 in 1.23 in (1981)
Month to date precipitation 0.25 3.07  
Year to date precipitation 27.27 21.15  
Sea Level Pressure  
Sea Level Pressure 29.85 in    
Wind  
Wind Speed 8 mph (North)    
Max Wind Speed 18 mph    
Max Gust Speed 22 mph    
Visibility 10 miles    
Events Thunderstorm    
T = Trace of Precipitation, MM = Missing Value Source: NWS Daily Summary

Daily Weather History Graph

Daily Weather History Graph

Search for Another Location

Airport:

Trip Planner

Search our weather history database for the weather conditions in past years. The results will help you decide how hot, cold, wet, or windy it might be!

Date:

Astronomy

Jul. 23, 2013 Rise Set
Actual Time 5:55 AM CDT 8:26 PM CDT
Civil Twilight 5:24 AM CDT 8:57 PM CDT
Nautical Twilight 4:45 AM CDT 9:36 PM CDT
Astronomical Twilight 4:02 AM CDT 10:19 PM CDT
Moon 8:55 PM CDT (7/23) 7:04 AM CDT (7/23)
Length of Visible Light 15h 33m
Length of Day
14h 31m
Full, 99% of the Moon is Illuminated
Jul 23
Full
Jul 29
Last Quarter
Aug 6
New
Aug 14
First Quarter
Aug 20
Full

Hourly Weather History & Observations

Time (CDT) Temp. Heat Index Dew Point Humidity Pressure Visibility Wind Dir Wind Speed Gust Speed Precip Events Conditions
12:07 AM 75.2 °F - 66.2 °F 73% 29.87 in 10.0 mi North 6.9 mph - N/A   Mostly Cloudy
12:54 AM 73.0 °F - 64.9 °F 76% 29.83 in 10.0 mi ENE 4.6 mph - N/A   Clear
1:23 AM 73.4 °F - 64.4 °F 73% 29.84 in 10.0 mi South 4.6 mph - N/A Thunderstorm Scattered Clouds
1:38 AM 73.4 °F - 64.4 °F 73% 29.80 in 10.0 mi SSE 8.1 mph - 0.00 in   Partly Cloudy
1:54 AM 73.9 °F - 64.9 °F 73% 29.78 in 10.0 mi SE 9.2 mph - 0.00 in   Clear
2:54 AM 71.1 °F - 62.1 °F 73% 29.79 in 10.0 mi SSW 5.8 mph - N/A   Clear
3:54 AM 70.0 °F - 63.0 °F 78% 29.78 in 10.0 mi Calm Calm - N/A   Clear
4:54 AM 66.9 °F - 63.0 °F 87% 29.78 in 10.0 mi NNE 3.5 mph - N/A   Clear
5:54 AM 66.9 °F - 63.0 °F 87% 29.80 in 10.0 mi NW 8.1 mph - N/A   Clear
6:54 AM 69.1 °F - 64.0 °F 84% 29.81 in 10.0 mi Calm Calm - N/A   Clear
7:54 AM 73.0 °F - 63.0 °F 71% 29.83 in 10.0 mi NNW 8.1 mph - N/A   Clear
8:54 AM 77.0 °F - 62.1 °F 60% 29.83 in 10.0 mi North 10.4 mph - N/A   Clear
9:54 AM 80.1 °F 81.7 °F 64.0 °F 58% 29.86 in 10.0 mi North 11.5 mph - N/A   Clear
10:54 AM 82.9 °F 84.0 °F 63.0 °F 51% 29.87 in 10.0 mi North 8.1 mph - N/A   Clear
11:54 AM 84.0 °F 85.8 °F 64.9 °F 53% 29.88 in 10.0 mi NNW 8.1 mph - N/A   Mostly Cloudy
12:54 PM 84.9 °F 86.6 °F 64.9 °F 51% 29.87 in 10.0 mi NNW 11.5 mph - N/A   Partly Cloudy
1:54 PM 84.9 °F 86.1 °F 64.0 °F 49% 29.86 in 10.0 mi NNW 10.4 mph 18.4 mph N/A   Partly Cloudy
2:54 PM 84.0 °F 84.5 °F 62.1 °F 47% 29.86 in 10.0 mi NNE 11.5 mph - N/A   Clear
3:54 PM 84.0 °F 84.4 °F 61.0 °F 46% 29.86 in 10.0 mi North 13.8 mph - N/A   Clear
4:54 PM 81.0 °F 81.9 °F 62.1 °F 52% 29.86 in 10.0 mi NNE 8.1 mph - N/A   Clear
5:54 PM 78.1 °F - 62.1 °F 58% 29.86 in 10.0 mi North 15.0 mph - N/A   Clear
6:54 PM 75.9 °F - 61.0 °F 60% 29.86 in 10.0 mi North 11.5 mph - N/A   Clear
7:54 PM 73.0 °F - 60.1 °F 64% 29.89 in 10.0 mi NNE 10.4 mph - N/A   Clear
8:54 PM 70.0 °F - 61.0 °F 73% 29.91 in 10.0 mi NNE 4.6 mph - N/A   Partly Cloudy
9:54 PM 66.9 °F - 60.1 °F 79% 29.93 in 10.0 mi North 4.6 mph - N/A   Clear
10:54 PM 66.0 °F - 60.1 °F 81% 29.93 in 10.0 mi North 8.1 mph - N/A   Clear
11:54 PM 63.0 °F - 60.1 °F 90% 29.93 in 10.0 mi NNE 6.9 mph - N/A   Clear